| time (UTC) | temp C | wind direction | speed KPH | gust KPH | rain 1hr cm | rain 24hr cm | rain mn cm | humidity % | barometer mb |
| 20260906113053 | 0 | 300 | 0.0 | 0.0 | 0.00 | 0.00 | 0.00 | 1009.8 | |
| 20260906111539 | -1 | 249 | 0.0 | 0.0 | 0.00 | 0.00 | 0.00 | 1009.7 | |
| 20260906110034 | -1 | 303 | 0.0 | 0.0 | 0.00 | 0.00 | 0.00 | 1009.5 | |
| 20260906104531 | -1 | 280 | 0.0 | 0.0 | 0.00 | 0.00 | 0.00 | 1009.5 | |
| 20260906103026 | -1 | 280 | 0.0 | 0.0 | 0.00 | 0.00 | 0.00 | 1009.3 | |
| 20260906101521 | -1 | 280 | 0.0 | 0.0 | 0.00 | 0.00 | 0.00 | 1009.1 | |
| 20260906100019 | -1 | 280 | 0.0 | 0.0 | 0.00 | 0.00 | 0.00 | 1009.1 | |
| 20260906094512 | -1 | 285 | 0.0 | 0.0 | 0.00 | 0.00 | 0.00 | 1008.9 | |
| 20260906093009 | -1 | 284 | 0.0 | 0.0 | 0.00 | 0.00 | 0.00 | 1008.9 | |
| 20260906091508 | -1 | 269 | 0.0 | 0.0 | 0.00 | 0.00 | 0.00 | 1009.0 | |
| 20260906090107 | -1 | 296 | 0.0 | 0.0 | 0.00 | 0.00 | 0.00 | 1009.1 | |
| 20260906084555 | -1 | 225 | 0.0 | 0.0 | 0.00 | 0.00 | 0.00 | 1009.0 | |
| 20260906083051 | -1 | 235 | 0.0 | 0.0 | 0.00 | 0.00 | 0.00 | 1009.1 | |
| 20260906081551 | -1 | 235 | 0.0 | 0.0 | 0.00 | 0.00 | 0.00 | 1009.2 | |
| 20260906080042 | -2 | 235 | 0.0 | 0.0 | 0.00 | 0.00 | 0.00 | 1009.2 | |
| 20260906074546 | -2 | 235 | 0.0 | 0.0 | 0.00 | 0.00 | 0.00 | 1009.1 | |
| 20260906073032 | -2 | 235 | 0.0 | 0.0 | 0.00 | 0.00 | 0.00 | 1009.1 | |
| 20260906071528 | -3 | 235 | 0.0 | 0.0 | 0.00 | 0.00 | 0.00 | 1009.2 | |
| 20260906070024 | -3 | 246 | 0.0 | 0.0 | 0.00 | 0.00 | 0.00 | 1009.1 | |
| 20260906064519 | -3 | 201 | 0.0 | 0.0 | 0.00 | 0.00 | 0.00 | 1009.1 | |
| 20260906063015 | -3 | 229 | 0.0 | 0.0 | 0.00 | 0.00 | 0.00 | 1009.3 | |
| 20260906061511 | -4 | 213 | 0.0 | 0.0 | 0.00 | 0.00 | 0.00 | 1009.3 | |
| 20260906060015 | -4 | 223 | 0.0 | 0.0 | 0.00 | 0.00 | 0.00 | 1009.4 | |
| 20260906054502 | -5 | 226 | 0.0 | 0.0 | 0.00 | 0.00 | 0.00 | 1009.4 | |
| 20260906053100 | -6 | 234 | 0.0 | 0.0 | 0.00 | 0.00 | 0.00 | 1009.6 | |
| 20260906051602 | -6 | 235 | 0.0 | 0.0 | 0.00 | 0.00 | 0.00 | 1010.0 | |
| 20260906050054 | -7 | 207 | 0.0 | 0.0 | 0.00 | 0.00 | 0.00 | 1010.2 | |
| 20260906044545 | -7 | 227 | 0.0 | 0.0 | 0.00 | 0.00 | 0.00 | 1010.2 | |
| 20260906043041 | -7 | 228 | 0.0 | 0.0 | 0.00 | 0.00 | 0.00 | 1010.2 | |
| 20260906041541 | -8 | 220 | 0.0 | 0.0 | 0.00 | 0.00 | 0.00 | 1010.2 | |
| 20260906040033 | -9 | 217 | 0.0 | 0.0 | 0.00 | 0.00 | 0.00 | 1010.4 | |
| 20260906034529 | -10 | 207 | 0.0 | 0.0 | 0.00 | 0.00 | 0.36 | 1010.5 | |
| 20260906033037 | -10 | 171 | 0.0 | 0.0 | 0.00 | 0.00 | 0.36 | 1010.6 | |
| 20260906031518 | -11 | 193 | 0.0 | 0.0 | 0.00 | 0.00 | 0.36 | 1010.2 | |
| 20260906030014 | -12 | 208 | 0.0 | 0.0 | 0.00 | 0.00 | 0.36 | 1010.1 | |
| 20260906024509 | -12 | 179 | 0.0 | 0.0 | 0.00 | 0.00 | 0.36 | 1010.1 | |
| 20260906023005 | -13 | 190 | 0.0 | 0.0 | 0.00 | 0.00 | 0.36 | 1010.1 | |
| 20260906021501 | -13 | 209 | 0.0 | 0.0 | 0.00 | 0.00 | 0.36 | 1010.2 | |
| 20260906014552 | -15 | 188 | 0.0 | 0.0 | 0.00 | 0.00 | 0.36 | 1010.2 | |
| 20260906013048 | -16 | 198 | 0.0 | 0.0 | 0.00 | 0.00 | 0.36 | 1010.0 | |
| 20260906011544 | -17 | 212 | 0.0 | 0.0 | 0.00 | 0.00 | 0.36 | 1009.9 | |
| 20260906010038 | -17 | 194 | 0.0 | 0.0 | 0.00 | 0.00 | 0.36 | 1010.1 | |
| 20260906004534 | -17 | 194 | 0.0 | 0.0 | 0.00 | 0.00 | 0.36 | 1010.1 | |
| 20260906003030 | -17 | 211 | 0.0 | 0.0 | 0.00 | 0.00 | 0.36 | 1010.3 | |
| 20260906001526 | -18 | 198 | 0.0 | 0.0 | 0.00 | 0.00 | 0.36 | 1010.3 | |
| 20260906000021 | -19 | 191 | 0.0 | 0.0 | 0.00 | 0.00 | 0.36 | 1010.0 | |
| 20260905234516 | -20 | 201 | 0.0 | 0.0 | 0.00 | 0.00 | 0.36 | 1010.1 | |
| 20260905233012 | -20 | 217 | 0.0 | 0.0 | 0.00 | 0.00 | 0.36 | 1009.8 | |
| 20260905231508 | -20 | 162 | 0.0 | 0.0 | 0.00 | 0.00 | 0.36 | 1009.6 | |
| 20260905230004 | -20 | 177 | 0.0 | 0.0 | 0.00 | 0.00 | 0.36 | 1009.5 | |
| 20260905224606 | -20 | 189 | 1.6 | 0.0 | 0.00 | 0.00 | 0.36 | 1009.4 | |
| 20260905223055 | -18 | 187 | 1.6 | 0.0 | 0.00 | 0.00 | 0.36 | 1009.4 | |
| 20260905221558 | -18 | 191 | 1.6 | 0.0 | 0.00 | 0.00 | 0.36 | 1009.4 | |
| 20260905220055 | -18 | 201 | 1.6 | 0.0 | 0.00 | 0.00 | 0.36 | 1009.7 | |
| 20260905214541 | -17 | 165 | 0.0 | 0.0 | 0.00 | 0.00 | 0.36 | 1009.7 | |
| 20260905213037 | -17 | 170 | 0.0 | 0.0 | 0.00 | 0.00 | 0.36 | 1009.7 | |
| 20260905211533 | -16 | 147 | 0.0 | 0.0 | 0.00 | 0.00 | 0.36 | 1009.8 | |
| 20260905210029 | -15 | 198 | 0.0 | 0.0 | 0.00 | 0.00 | 0.36 | 1009.4 | |
| 20260905204524 | -14 | 194 | 0.0 | 0.0 | 0.00 | 0.00 | 0.36 | 1009.4 | |
| 20260905203020 | -13 | 215 | 1.6 | 0.0 | 0.00 | 0.00 | 0.36 | 1009.1 | |
| 20260905201516 | -13 | 166 | 0.0 | 0.0 | 0.00 | 0.00 | 0.36 | 1009.3 | |
| 20260905200010 | -13 | 192 | 0.0 | 0.0 | 0.00 | 0.00 | 0.36 | 1009.3 | |
| 20260905194506 | -12 | 195 | 0.0 | 0.0 | 0.00 | 0.00 | 0.36 | 1009.5 | |
| 20260905193003 | -12 | 210 | 0.0 | 0.0 | 0.00 | 0.00 | 0.36 | 1009.7 | |
| 20260905191558 | -11 | 198 | 0.0 | 0.0 | 0.00 | 0.00 | 0.36 | 1009.9 | |
| 20260905190053 | -10 | 186 | 0.0 | 0.0 | 0.00 | 0.00 | 0.36 | 1009.9 | |
| 20260905184549 | -10 | 141 | 0.0 | 0.0 | 0.00 | 0.00 | 0.36 | 1010.3 | |
| 20260905183044 | -10 | 159 | 0.0 | 0.0 | 0.00 | 0.00 | 0.36 | 1010.7 | |
| 20260905181559 | -10 | 194 | 0.0 | 0.0 | 0.00 | 0.00 | 0.36 | 1011.1 | |
| 20260905180036 | -9 | 186 | 0.0 | 0.0 | 0.00 | 0.00 | 0.36 | 1011.3 | |
| 20260905174541 | -9 | 111 | 0.0 | 0.0 | 0.00 | 0.00 | 0.36 | 1011.7 | |
| 20260905173031 | -8 | 136 | 1.6 | 0.0 | 0.00 | 0.00 | 0.36 | 1011.8 | |
| 20260905171535 | -8 | 144 | 0.0 | 0.0 | 0.00 | 0.00 | 0.36 | 1012.1 | |
| 20260905170018 | -7 | 94 | 0.0 | 0.0 | 0.00 | 0.00 | 0.36 | 1012.1 | |
| 20260905164514 | -6 | 88 | 0.0 | 0.0 | 0.00 | 0.00 | 0.36 | 1012.3 | |
| 20260905163010 | -6 | 56 | 0.0 | 0.0 | 0.00 | 0.00 | 0.36 | 1012.5 | |
| 20260905161505 | -6 | 72 | 0.0 | 0.0 | 0.00 | 0.00 | 0.36 | 1012.7 | |
| 20260905160135 | -6 | 105 | 0.0 | 0.0 | 0.00 | 0.00 | 0.36 | 1012.8 | |
| 20260905154559 | -5 | 107 | 0.0 | 0.0 | 0.00 | 0.00 | 0.36 | 1012.9 | |
| 20260905153052 | -5 | 107 | 0.0 | 0.0 | 0.00 | 0.00 | 0.36 | 1013.1 | |
| 20260905151548 | -4 | 318 | 0.0 | 0.0 | 0.00 | 0.00 | 0.36 | 1013.0 | |
| 20260905150042 | -3 | 261 | 0.0 | 0.0 | 0.00 | 0.00 | 0.36 | 1013.0 | |
| 20260905144539 | -2 | 344 | 0.0 | 0.0 | 0.00 | 0.00 | 0.36 | 1013.1 | |
| 20260905143034 | -2 | 308 | 0.0 | 0.0 | 0.00 | 0.00 | 0.36 | 1013.0 | |
| 20260905141530 | -1 | 309 | 0.0 | 0.0 | 0.00 | 0.00 | 0.36 | 1013.0 | |
| 20260905140025 | -1 | 290 | 0.0 | 0.0 | 0.00 | 0.00 | 0.36 | 1013.1 | |
| 20260905134521 | -1 | 301 | 0.0 | 0.0 | 0.00 | 0.00 | 0.36 | 1013.1 | |
| 20260905133016 | -1 | 333 | 0.0 | 0.0 | 0.00 | 0.00 | 0.36 | 1013.2 | |
| 20260905131513 | -1 | 338 | 0.0 | 0.0 | 0.00 | 0.00 | 0.36 | 1013.3 | |
| 20260905130007 | 0 | 325 | 0.0 | 0.0 | 0.00 | 0.00 | 0.36 | 1013.2 | |
| 20260905124504 | 0 | 325 | 0.0 | 0.0 | 0.00 | 0.00 | 0.36 | 1013.0 | |
| 20260905123100 | 0 | 322 | 0.0 | 0.0 | 0.00 | 0.00 | 0.36 | 1013.0 | |
| 20260905121557 | -1 | 302 | 0.0 | 0.0 | 0.00 | 0.00 | 0.36 | 1012.9 | |
| 20260905120103 | -1 | 315 | 0.0 | 0.0 | 0.00 | 0.00 | 0.36 | 1012.8 | |
| 20260905114548 | -2 | 293 | 0.0 | 0.0 | 0.00 | 0.00 | 0.36 | 1012.7 |